Weather Roundup
Issued by NWS

Home | Current Version | Previous Version | Text Only | Print | Product List | Glossary On
Versions: 1 2 3 4 5 6 7 8 9 10 11 12 13 14 15 16 17 18 19 20 21 22 23 24 25 26 27 28 29 30 31 32 33 34 35 36 37 38 39 40 41 42 43 44 45 46 47 48 49 50
180
NZUS93 KARX 201610
HRRWXR

CURRENT HOURLY OBSERVATIONS ACROSS
MUCH OF THE UPPER MISSISSIPPI VALLEY
NATIONAL WEATHER SERVICE LA CROSSE WI
1000 AM CST MON NOV 20 2017


...SOUTHEAST MINNESOTA...


CITY           SKY/WX    TMP DP  RH WIND       PRES   REMARKS
ROCHESTER      CLOUDY    39  30  70 S15       29.63F WCI  31
ROCHESTER/MAYO FAIR      40  28  61 S12G18    29.63F WCI  33
WINONA         CLOUDY    41  28  60 S5        29.68F
AUSTIN         CLOUDY    37  28  70 S14       29.63F WCI  29
ALBERT LEA     CLOUDY    41  27  56 S9        29.61F
DODGE CENTER   CLOUDY    39  28  65 S14       29.60F WCI  31
PRESTON        CLOUDY    39  28  64 S13       29.66F WCI  32
OWATONNA       CLOUDY    39  28  65 S14G21    29.60F WCI  31
FARIBAULT      CLOUDY    37  28  70 S12       29.60F WCI  30
$$

...ELSEWHERE IN MINNESOTA...


CITY           SKY/WX    TMP DP  RH WIND       PRES   REMARKS
MINNEAPOLIS    CLOUDY    37  29  72 S8        29.58F WCI  31
INTNL FALLS    CLOUDY    28  22  78 SE6       29.42F WCI  22
DULUTH         CLOUDY    27  25  92 SE7       29.53F WCI  19
RED WING       CLOUDY    39  27  60 SE7       29.62F WCI  34
REDWOOD FALLS  CLOUDY    37  27  67 S9        29.53F WCI  30
MANKATO        CLOUDY    37  28  70 S14       29.58F WCI  28
WORTHINGTON    CLOUDY    38  26  62 SW16      29.55F WCI  29
FAIRMONT       CLOUDY    38  28  67 SW15      29.59F WCI  29
$$

...SOUTHWEST WISCONSIN...


CITY           SKY/WX    TMP DP  RH WIND       PRES   REMARKS
LA CROSSE      CLOUDY    41  29  62 S12       29.70F
PRAIRIE DU CHI CLOUDY    42  28  57 S9        29.75F
BOSCOBEL       CLOUDY    43  29  57 SW8       29.77F
LONE ROCK      SUNNY     42  31  64 SW6       29.78F
PLATTEVILLE    SUNNY     42  33  70 S15       29.78F
FORT MC COY    CLOUDY    40  29  65 SW7       29.72F
CAMP DOUGLAS   PTSUNNY   37  27  65 S6        29.72F WCI  33
MAUSTON-NEW LI CLOUDY    40  28  62 CALM      29.72F
VIROQUA        FAIR      39  30  70 S14       29.71F WCI  31
WIS DELLS      CLOUDY    39  27  62 SW10G16   29.75F WCI  32
$$

...ELSEWHERE IN WISCONSIN...


CITY           SKY/WX    TMP DP  RH WIND       PRES   REMARKS
MILWAUKEE      PTSUNNY   42  28  57 SW15      29.84S
MADISON        PTSUNNY   39  29  67 S10G20    29.79F WCI  32
GREEN BAY      CLOUDY    36  30  79 S10       29.76F WCI  28
EAU CLAIRE     CLOUDY    36  28  73 S9        29.64F WCI  29
BLACK RVR FLS  FAIR      41  27  57 SW8       29.69F
MEDFORD        CLOUDY    33  28  81 S8        29.66F WCI  25
WAUSAU         CLOUDY    32  26  78 S5        29.68F WCI  27
WIS RAPIDS     CLOUDY    37  28  70 SW10      29.72F WCI  30
MARSHFIELD     CLOUDY    33  27  78 S7        29.68F WCI  27
RICE LAKE      CLOUDY    33  29  85 SE7       29.63F WCI  27
$$

...NORTHEAST IOWA...


CITY           SKY/WX    TMP DP  RH WIND       PRES   REMARKS
WATERLOO       SUNNY     44  29  55 S15       29.72F
DUBUQUE        CLOUDY    42  30  62 SW16      29.78F
DECORAH        CLOUDY    41  30  65 VRB7G15   29.69F
MASON CITY     CLOUDY    42  29  59 S15       29.66F
CHARLES CITY   CLOUDY    41  32  70 S15G22    29.69F
OELWEIN        CLOUDY    41  34  75 S16G23    29.73F
$$

...ELSEWHERE IN IOWA...


CITY           SKY/WX    TMP DP  RH WIND       PRES   REMARKS
DES MOINES     PTSUNNY   50  27  40 SW16G24   29.74F
IOWA CITY      SUNNY     47  31  53 S16G24    29.83F
FORT DODGE     CLOUDY    44  30  57 SW18G25   29.67S
MARSHALLTOWN   SUNNY     46  30  53 S15G23    29.72F
CEDAR RAPIDS   SUNNY     47  31  53 S16       29.77F
$$

...NORTHERN ILLINOIS...


CITY           SKY/WX    TMP DP  RH WIND       PRES   REMARKS
CHICAGO-OHARE  MOSUNNY   43  27  53 SW18G24   29.89F
CHICAGO-MIDWAY MOSUNNY   44  29  55 SW16G22   29.91F
MOLINE         SUNNY     46  29  51 SW15G23   29.85F
ROCKFORD       PTSUNNY   42  29  59 SW17      29.87F
PEORIA         CLOUDY    42  30  62 S13       29.96F
$$

NOTE: "FAIR" INDICATES FEW OR NO CLOUDS BELOW 12,000 FEET WITH NO
SIGNIFICANT WEATHER AND/OR OBSTRUCTIONS TO VISIBILITY. WIND
SPEEDS ARE IN MILES-PER-HOUR.




USA.gov is the U.S. government's official web portal to all federal, state and local government web resources and services.